[Iaude] MPEC S114: 2019 SO4 [a=2.13,e=0.53,i=2.6,H=27.3]

mpec at marsden.cfa.harvard.edu mpec at marsden.cfa.harvard.edu
Fri Sep 27 02:12:48 EDT 2019


M.P.E.C. 2019-S114                           Issued 2019 September 27, 06:11 UT

     The Minor Planet Electronic Circulars contain information on unusual
         minor planets and routine data on comets.  They are published
    on behalf of Division F of the International Astronomical Union by the
          Minor Planet Center, Smithsonian Astrophysical Observatory,
                          Cambridge, MA 02138, U.S.A.

             Prepared using the Tamkin Foundation Computer Network

                              MPC at CFA.HARVARD.EDU
            URL https://www.minorplanetcenter.net/    ISSN 1523-6714

                                    2019 SO4                                    


Observations:
     K19S04O  C2019 09 26.43813400 24 46.486+04 26 58.96         20.6 GVES114F51
     K19S04O  C2019 09 26.45047600 24 57.410+04 27 10.51         20.6 GVES114F51
     K19S04O* C2019 09 26.45178 00 24 58.606+04 27 11.65         21.0 wUES114F51
     K19S04O  C2019 09 26.46413 00 25 09.508+04 27 22.77         21.1 wUES114F51
     K19S04O  C2019 09 26.47675300 25 20.665+04 27 34.05               VES114F51
     K19S04O KC2019 09 26.93254300 32 25.58 +04 32 53.1          21.5 GVES114L01
     K19S04O pC2019 09 26.93439800 32 27.18 +04 32 54.6          21.5 GVES114L01
     K19S04O IC2019 09 26.93678600 32 29.18 +04 32 56.5          21.3 GVES114L01
     K19S04O KC2019 09 27.17205900 35 55.71 +04 36 14.9          21.5 VuES114H21
     K19S04O KC2019 09 27.17815600 36 00.54 +04 36 19.8          21.0 VuES114H21
     K19S04O KC2019 09 27.18425200 36 05.38 +04 36 24.7          20.8 VuES114H21

Observer details:
F51 Pan-STARRS 1, Haleakala.  Observers J. Bulger, K. Chambers, T. Lowe, E. 
   Magnier, A. Schultz, M. Willman.  Measurers S. Chastel, M. Huber, Y. 
   Ramanjooloo, R. Wainscoat, R. Weryk, K. Chambers, T. de Boer, L. Denneau, J. 
   Fairlamb, H. Flewelling, C.-C. Lin, E. Magnier.  1.8-m Ritchey-Chretien + 
   CCD.
H21 Astronomical Research Observatory, Westfield.  Observer R. Holmes.  
    Measurers S. Foglia, L. Buzzi, T. Linder, R. Holmes.  0.81-m f/4.0 
   astrograph + CCD.
L01 Visnjan Observatory, Tican.  Observers K. Korlevic, F. Valentine, G. 
   Kervina.  Measurer K. Korlevic.  1.0-m f/2.9 reflector + CCD.

Orbital elements:
2019 SO4                                                 Earth MOID = 0.0140 AU
Epoch 2019 Apr. 27.0 TT = JDT 2458600.5                 Bell
M 319.22325              (2000.0)            P               Q
n   0.31756265     Peri.  150.08620     +0.90351828     +0.42853454
a   2.1277296      Node   184.54367     -0.40161943     +0.84379221
e   0.5286779      Incl.    2.59422     -0.14952105     +0.32306787
P   3.10           H   27.3           G   0.15           U   7
Residuals in seconds of arc
190926 F51  0.0   0.1-    190926 F51  0.0   0.0     190927 H21  0.0   0.0
190926 F51  0.3-  0.1+    190926 L01  0.7-  0.0     190927 H21  0.1-  0.0
190926 F51  0.3+  0.1+    190926 L01  0.2+  0.0     190927 H21  0.1+  0.1+
190926 F51  0.0   0.0     190926 L01  0.5+  0.1-

Ephemeris:
2019 SO4                 a,e,i = 2.13, 0.53, 3                   q = 1.0028
Date    TT    R. A. (2000) Decl.     Delta      r    Elong.  Phase     V
2019 08 28    15 56 10.0 -05 50 28   0.1098  1.0052    84.2    89.6    25.7
...
2019 09 12    17 28 43.3 -04 53 18   0.04563 1.0100    92.9    84.5    23.6
...
2019 09 20    21 19 55.5 +00 21 11   0.02735 1.0265   143.2    35.9    21.0
...
2019 09 26    00 17 25.3 +04 20 46   0.04199 1.0448   175.9     3.9    20.9
2019 09 27    00 33 22.1 +04 35 51   0.04592 1.0482   173.8     5.9    21.2
2019 09 28    00 46 43.8 +04 47 17   0.05006 1.0519   171.7     7.9    21.5
...
2019 10 04    01 34 08.1 +05 18 14   0.07768 1.0761   165.8    13.1    22.7
...
2019 10 12    01 59 15.6 +05 29 25   0.1189  1.1143   166.9    11.7    23.6
...
2019 10 27    02 13 45.3 +05 48 04   0.2079  1.2006   172.8     6.0    24.8

A. U. Tomatic                (C) Copyright 2019 MPC           M.P.E.C. 2019-S114




More information about the Iaude mailing list